Regional Weather Roundup
Issued by NWS

Home | Current Version | Previous Version | Graphics & Text | Print | Product List | Glossary On
Versions: 1 2 3 4 5 6 7 8 9 10 11 12 13 14 15 16 17 18 19 20 21 22 23 24 25 26 27 28 29 30 31 32 33 34 35 36 37 38 39 40 41 42 43 44 45 46 47 48 49 50
000
ASUS43 KLSX 291907
RWRMO

WEATHER SUMMARY FOR MISSOURI
NATIONAL WEATHER SERVICE SPRINGFIELD MO
200 PM CDT SUN MAY 29 2016

NOTE: "FAIR" INDICATES FEW OR NO CLOUDS BELOW 12,000 FEET WITH NO
       SIGNIFICANT WEATHER AND/OR OBSTRUCTIONS TO VISIBILITY.
       CURRENT SKY AND/OR WEATHER CONDITIONS ARE NOT AVAILABLE FOR
       CHILLICOTHE AND FARMINGTON.

MOZ001>031-035>038-043-044-053-054-292000-
...NORTHERN AND WESTERN MISSOURI...

CITY           SKY/WX    TMP DP  RH WIND       PRES   REMARKS
KANSAS CTY INT MOSUNNY   83  57  41 VRB3      30.10F
KANSAS C DTWN  SUNNY     85  56  37 SW5       30.08F
LEE`S SUMMIT   SUNNY     84  56  38 N6        30.11F
ST JOSEPH      SUNNY     86  58  38 W9        30.08F
CHILLICOTHE      N/A     84  62  47 VRB6      30.09F
KIRKSVILLE     MOSUNNY   81  62  52 W8        30.10F

$$
MOZ066>068-077>081-088>096-101>105-292000-
...SOUTHWEST MISSOURI...

CITY           SKY/WX    TMP DP  RH WIND       PRES   REMARKS
SPRINGFIELD    CLOUDY    82  62  50 W8        30.14S
JOPLIN         SUNNY     85  64  49 NW7       30.12F
BRANSON        CLOUDY    81  59  47 W6        30.16F

$$
MOZ032>034-039>042-045>050-055>058-069>072-292000-
...CENTRAL MISSOURI...

CITY           SKY/WX    TMP DP  RH WIND       PRES   REMARKS
COLUMBIA       MOSUNNY   82  57  42 W6        30.11F
JEFFERSON CITY SUNNY     85  56  37 CALM      30.10F
ROLLA          CLOUDY    81  59  47 W7        30.12F
SEDALIA        SUNNY     85  54  34 CALM      30.12S
WARRENSBURG    MOSUNNY   82  54  36 S5        30.10F

$$
MOZ051-052-059>065-292000-
...EAST CENTRAL MISSOURI...

CITY           SKY/WX    TMP DP  RH WIND       PRES   REMARKS
ST LOUIS INTL  PTSUNNY   85  57  38 NW12      30.10F
SPIRIT OF STL  PTSUNNY   86  60  41 NW8       30.08F
ST CHARLES     SUNNY     86  61  42 VRB7      30.08F

$$
MOZ072>076-082>087-097>100-106>115-292000-
...SOUTH CENTRAL AND SOUTHEAST MISSOURI...

CITY           SKY/WX    TMP DP  RH WIND       PRES   REMARKS
CAPE GIRARDEAU PTSUNNY   85  63  47 NW3       30.09S
FARMINGTON     MOSUNNY   82  60  47 NW6       30.12F
POPLAR BLUFF   PTSUNNY   84  65  52 N5        30.09F
WEST PLAINS    MOSUNNY   83  62  49 VRB5      30.15F

$$



USA.gov is the U.S. government's official web portal to all federal, state and local government web resources and services.